Vertical_Velocity
1 2 1 3 2 -1 -0 0 3 0 0 0 -1 -1 1 -1 0 0 -1 -0 1 0 3 -5 -1 3 -4 6 8 2 0 -2 -0 3 -1 -3 1 -4 2 6 -5 -6 -3 -3 -2 1 5
-0 -1 1 -1 2 -0 0 2 2 1 3 2 -1 -2 -3 -2 -1 1 1 0 -3 -1 1 -2 -0 1 1 18 -6 -6 5 5 -5 2 0 -4 1 -6 4 -1 -4 0 -4 0 6 9 1
-1 10 2 -4 -1 1 -0 2 2 3 1 3 0 2 -0 1 -2 -1 0 -0 -2 -2 -1 3 1 -2 1 11 5 -10 -6 10 9 -2 4 -3 -4 -5 -5 1 -1 -7 -12 -4 6 7 12
-3 0 1 -2 6 3 2 3 2 -1 0 1 -4 2 -2 2 -7 -2 -0 -3 -4 -2 1 4 -5 -10 5 -8 9 -3 -5 -4 -3 2 -2 7 -3 -0 0 -1 6 -15 -14 -25 35 -2 31
-1 -0 -4 -2 0 -2 -1 1 3 2 2 3 5 -2 1 -4 -0 7 -1 -9 -5 -4 2 -3 -5 -8 4 4 -5 4 8 1 3 5 -0 -3 -2 -4 -4 -6 -6 4 -18 -19 21 4 0
-3 1 2 3 -0 -1 -1 1 -0 -1 -4 1 -2 -2 -6 -2 -1 1 -10 -4 5 -3 -3 1 -7 -5 -10 -1 7 -9 -3 7 -3 -2 -5 8 -14 -5 4 -1 -10 -6 -19 -6 -13 44 0
0 1 3 -2 4 -1 3 3 1 2 3 -7 3 1 -0 -7 -6 -1 1 -0 -2 -16 0 -5 -8 3 -2 -3 -17 3 3 2 4 -5 -4 -7 -8 3 6 -4 -4 -3 -5 -16 5 23 0
1 1 -0 -1 3 1 -0 1 4 1 -3 -1 -1 0 -1 1 -8 3 -2 4 -11 -12 -21 1 3 -5 12 -10 -2 5 -6 -7 -2 5 0 -5 -2 11 -7 -2 2 -3 -6 5 -30 5 18
-1 -0 -0 1 0 4 3 1 3 1 3 -1 -1 -1 -1 -4 -7 11 -6 6 -1 -16 -37 30 9 1 -13 5 4 29 -22 -4 -0 -4 6 -20 39 -10 -6 1 11 -2 -1 -7 -9 -6 -5
1 -0 2 -1 -1 3 2 3 3 2 0 1 1 0 -1 2 -8 6 13 -5 -2 -10 -44 20 -11 -7 2 9 -2 9 0 -2 9 2 -16 -26 20 1 -9 -12 24 -21 33 0 -7 -15 -8
1 0 2 -1 -1 3 3 3 6 1 1 -1 2 -1 -2 3 -5 6 19 -7 -1 -12 -62 9 -12 -4 10 14 3 -6 4 1 12 3 -20 21 -21 -7 -16 1 15 -13 9 -2 5 -9 6
-4 -2 1 -1 -1 1 3 2 5 2 5 0 -0 -1 -7 1 -4 10 7 3 -2 -15 -44 -2 -8 1 -6 -5 7 7 -10 -9 1 5 5 -13 2 -3 -2 -5 4 -7 -1 4 6 6 -34
-1 -0 0 -2 0 -1 3 3 5 5 5 1 1 -6 -0 -2 7 1 10 -1 -1 -55 -1 0 13 -15 -6 -1 -6 7 11 -16 -7 -9 13 4 -3 3 -1 -7 2 3 4 -17 -15 11 -28
2 -0 3 0 1 1 0 3 5 5 4 0 -1 -1 4 -0 -8 7 10 8 -30 13 8 13 1 -4 -13 -5 -5 2 -7 1 11 -3 -8 -4 -4 -6 4 -3 3 0 -2 0 -14 -10 -5
-1 1 2 -1 -2 1 1 2 5 6 7 -0 -2 3 0 2 4 12 9 -12 -47 29 10 3 15 -18 1 6 2 -4 -4 -12 1 2 -11 -5 -11 -8 7 -5 -1 12 -4 12 -14 5 -19
-0 1 -1 -1 0 0 2 1 1 10 8 2 -4 4 -2 8 10 15 -3 -36 -41 11 13 4 -17 8 -10 8 9 1 4 6 -1 -3 4 3 -19 1 6 6 14 -1 6 -11 3 -9 -11
-0 -1 1 -1 -1 -2 3 2 -2 8 8 4 -6 -1 12 2 16 12 -17 -51 -10 16 4 7 5 -15 -7 -8 3 -7 -5 8 13 4 -0 -0 -2 -2 2 3 1 1 4 -4 3 -3 -4
-0 -2 1 2 1 -1 -3 -2 4 5 8 6 6 -14 14 10 6 13 -17 4 11 15 8 -1 -7 2 2 2 -7 -0 7 -3 17 6 3 1 -8 -8 -2 1 3 -5 3 1 -2 10 -2
1 -0 -0 2 1 0 -2 1 6 8 7 17 -10 1 1 11 -7 -12 8 -11 -7 5 19 3 -3 1 14 3 -13 6 -5 -2 6 2 -9 9 -17 -8 -4 0 7 -3 1 1 -0 -1 -4
1 4 1 1 3 1 1 -0 3 9 4 15 4 -0 -8 -3 -7 -6 -0 -10 -19 10 1 3 -1 -0 3 3 3 3 -12 -2 3 -1 1 2 -1 2 5 -1 2 -1 -2 2 0 -2 8
-0 -3 -2 6 -3 0 1 -0 3 8 5 12 6 -7 -7 -9 -19 4 12 4 -1 -10 -3 11 -12 5 5 -6 -0 -12 3 -4 2 -3 -2 -1 -0 -0 4 3 4 4 -5 0 0 3 -6
0 1 0 -3 1 -0 1 5 4 9 5 2 1 3 -9 3 -1 -1 -1 -23 -4 13 -2 -1 -10 10 10 -6 -6 8 17 0 4 3 -5 -0 -5 -2 1 -1 -1 2 -3 1 1 6 2
1 1 -2 1 -2 0 2 5 5 8 9 1 3 1 5 7 -1 1 -11 7 17 22 -6 6 5 -3 3 4 6 -12 6 -4 0 6 1 -9 5 -1 2 -1 -2 -2 5 0 6 -1 0
0 1 -1 -0 0 0 0 3 4 1 0 3 13 13 7 -1 -4 -1 20 2 2 3 1 1 -1 6 -1 8 5 -0 -4 7 -4 5 4 -1 -2 -1 0 -1 -4 1 0 2 2 -0 6
1 -1 -2 -2 -1 1 -0 0 3 1 7 7 9 -0 -1 -5 -3 -13 2 -2 -1 -2 -8 6 -4 2 1 -2 -2 -3 1 2 -2 0 5 -1 -3 -4 -4 -2 2 -2 3 3 -1 3 2
-1 -0 -1 -0 0 1 1 0 0 3 -3 24 6 5 -7 -2 -13 7 -5 2 -0 -4 -4 -0 -3 2 -3 -4 2 -7 -0 5 -3 2 -3 -3 -1 -2 -2 -2 -3 10 0 1 -1 5 1
14 3 1 1 2 2 2 -1 7 11 12 -1 4 0 -4 -3 4 -9 -1 23 15 2 2 -0 -1 3 4 -1 -1 1 2 -3 1 -0 -3 -4 -1 0 -3 -3 1 0 -1 0 -5 -2 2
0 1 2 1 0 3 -2 -1 -0 2 -0 -2 -9 3 3 -5 -1 9 -2 -7 -1 -2 4 12 0 -3 -0 -1 -1 1 2 -3 -1 2 -1 -0 0 -0 -0 -1 -3 -4 -0 -6 -5 4 -1
5 3 1 3 3 4 2 3 3 2 -7 -7 11 3 1 -1 17 -9 16 -3 -8 -3 -0 1 1 0 1 -1 -2 -1 0 1 1 -1 -2 -0 -1 -1 -3 -2 -2 0 1 1 -1 -1 -0
Height
5742 5743 5746 5748 5750 5751 5752 5754 5757 5758 5758 5760 5761 5762 5764 5765 5766 5768 5770 5772 5773 5775 5777 5779 5780 5782 5785 5788 5788 5790 5791 5790 5790 5792 5791 5790 5791 5789 5789 5790 5789 5790 5789 5789 5790 5790 5792
5729 5731 5733 5736 5737 5739 5742 5742 5745 5746 5747 5748 5750 5750 5752 5754 5756 5757 5759 5762 5764 5765 5769 5771 5772 5774 5778 5782 5778 5781 5782 5783 5781 5782 5782 5782 5781 5780 5782 5782 5781 5780 5780 5781 5780 5781 5780
5715 5718 5720 5722 5722 5725 5728 5730 5732 5734 5737 5737 5739 5741 5742 5743 5745 5747 5751 5752 5754 5756 5759 5762 5763 5765 5769 5774 5769 5770 5771 5773 5774 5773 5775 5773 5772 5772 5773 5772 5770 5770 5771 5772 5773 5772 5768
5700 5703 5706 5707 5710 5712 5713 5715 5718 5721 5723 5726 5728 5731 5733 5734 5736 5738 5740 5742 5743 5745 5747 5752 5754 5755 5758 5759 5761 5760 5760 5761 5762 5762 5762 5763 5762 5762 5762 5760 5760 5759 5761 5764 5764 5759 5758
5686 5689 5691 5694 5696 5699 5701 5703 5707 5710 5712 5715 5717 5720 5722 5724 5726 5728 5729 5730 5730 5734 5738 5741 5744 5745 5748 5748 5749 5751 5752 5750 5749 5750 5752 5752 5751 5751 5749 5748 5750 5748 5750 5750 5754 5747 5743
5671 5674 5677 5680 5683 5686 5689 5692 5694 5696 5699 5702 5705 5707 5709 5712 5715 5718 5718 5718 5720 5723 5726 5730 5732 5737 5734 5733 5738 5739 5738 5740 5740 5739 5740 5742 5739 5738 5738 5737 5738 5736 5732 5736 5740 5737 5726
5655 5658 5662 5666 5669 5673 5676 5679 5682 5684 5686 5689 5693 5694 5696 5698 5703 5704 5706 5708 5709 5710 5715 5719 5720 5722 5723 5724 5721 5719 5724 5726 5728 5726 5727 5728 5729 5729 5728 5724 5722 5721 5718 5718 5724 5724 5707
5638 5642 5645 5650 5653 5658 5662 5665 5668 5669 5671 5674 5676 5681 5683 5686 5690 5692 5693 5694 5694 5696 5701 5707 5708 5709 5714 5710 5706 5709 5709 5710 5711 5712 5713 5716 5719 5714 5711 5711 5707 5703 5701 5702 5701 5703 5693
5620 5625 5629 5633 5638 5642 5646 5649 5653 5654 5657 5660 5664 5666 5670 5673 5676 5678 5680 5681 5681 5680 5685 5696 5698 5701 5697 5697 5701 5704 5696 5698 5697 5695 5696 5701 5702 5695 5695 5695 5688 5687 5682 5680 5678 5677 5680
5603 5609 5614 5618 5622 5627 5631 5635 5638 5641 5642 5645 5648 5652 5656 5661 5664 5665 5667 5665 5666 5669 5674 5685 5679 5684 5685 5687 5688 5689 5687 5689 5688 5686 5682 5688 5686 5681 5679 5679 5675 5671 5672 5665 5663 5660 5662
5586 5591 5597 5601 5606 5611 5616 5621 5623 5625 5627 5628 5633 5637 5641 5646 5651 5653 5653 5650 5652 5657 5664 5674 5667 5669 5673 5677 5676 5675 5674 5672 5676 5674 5668 5684 5671 5668 5664 5668 5664 5660 5659 5655 5655 5653 5651
5569 5574 5580 5585 5590 5594 5599 5604 5607 5609 5610 5612 5615 5621 5627 5631 5636 5640 5637 5634 5639 5647 5654 5662 5657 5658 5660 5662 5662 5660 5659 5660 5661 5660 5655 5662 5660 5654 5655 5654 5654 5653 5649 5650 5650 5646 5644
5549 5555 5562 5567 5574 5579 5583 5587 5592 5594 5595 5597 5600 5605 5614 5618 5624 5624 5621 5620 5626 5636 5647 5653 5648 5646 5650 5652 5650 5650 5647 5648 5648 5646 5647 5645 5649 5649 5646 5644 5646 5644 5642 5641 5641 5638 5638
5530 5536 5541 5547 5554 5561 5567 5571 5575 5579 5580 5581 5585 5592 5599 5605 5607 5609 5607 5606 5611 5634 5635 5640 5636 5635 5638 5639 5636 5637 5637 5639 5640 5637 5636 5636 5639 5639 5639 5638 5637 5637 5636 5634 5632 5630 5630
5511 5517 5522 5528 5535 5542 5548 5554 5560 5563 5563 5564 5570 5577 5585 5591 5594 5592 5590 5587 5606 5623 5623 5625 5627 5624 5629 5631 5626 5627 5627 5628 5629 5628 5628 5629 5632 5632 5633 5632 5631 5631 5628 5627 5625 5626 5624
5491 5497 5503 5510 5516 5523 5529 5536 5542 5547 5546 5546 5554 5561 5571 5576 5579 5576 5570 5577 5598 5609 5610 5609 5610 5615 5619 5623 5619 5620 5621 5622 5622 5622 5621 5623 5623 5626 5626 5627 5624 5622 5621 5619 5619 5619 5617
5469 5476 5482 5488 5496 5503 5511 5519 5526 5530 5530 5528 5538 5543 5558 5560 5561 5557 5556 5571 5590 5597 5597 5598 5601 5604 5606 5611 5611 5610 5612 5613 5613 5615 5616 5617 5619 5621 5620 5619 5616 5613 5613 5612 5613 5612 5611
5446 5453 5460 5466 5473 5480 5489 5498 5506 5513 5512 5513 5520 5524 5543 5543 5544 5545 5550 5568 5580 5585 5585 5587 5589 5593 5598 5600 5601 5602 5604 5601 5602 5606 5608 5610 5610 5610 5611 5609 5607 5605 5604 5604 5603 5606 5603
5422 5429 5436 5443 5449 5457 5465 5475 5484 5492 5494 5499 5499 5509 5521 5526 5524 5535 5547 5556 5562 5571 5574 5577 5580 5585 5589 5590 5592 5594 5595 5597 5597 5600 5602 5602 5601 5601 5600 5599 5598 5595 5595 5596 5595 5594 5593
5398 5406 5412 5419 5426 5434 5442 5452 5462 5470 5475 5482 5485 5490 5502 5507 5516 5525 5535 5542 5549 5558 5562 5566 5570 5574 5577 5580 5583 5585 5587 5590 5591 5594 5593 5594 5593 5593 5591 5588 5587 5585 5585 5587 5586 5584 5587
5376 5383 5389 5396 5403 5412 5421 5432 5443 5450 5458 5465 5471 5476 5488 5496 5508 5518 5524 5533 5540 5545 5550 5555 5558 5564 5568 5570 5574 5576 5579 5580 5583 5584 5584 5583 5583 5583 5580 5579 5577 5576 5576 5578 5577 5578 5576
5359 5365 5371 5377 5385 5393 5402 5413 5424 5435 5442 5449 5459 5470 5476 5489 5497 5504 5509 5520 5527 5533 5537 5544 5550 5555 5559 5561 5566 5569 5571 5572 5575 5575 5574 5574 5574 5571 5569 5569 5568 5565 5570 5570 5569 5570 5567
5342 5348 5353 5360 5367 5376 5384 5396 5408 5419 5428 5438 5450 5460 5467 5477 5486 5492 5504 5512 5519 5523 5528 5533 5540 5543 5548 5554 5556 5558 5563 5564 5565 5566 5566 5565 5564 5561 5561 5561 5561 5560 5561 5561 5562 5560 5558
5327 5333 5339 5346 5353 5361 5370 5379 5393 5405 5418 5430 5443 5452 5458 5468 5475 5489 5495 5502 5508 5513 5518 5523 5528 5533 5540 5544 5548 5550 5552 5556 5556 5558 5558 5556 5554 5552 5553 5554 5553 5554 5552 5554 5555 5552 5550
5316 5322 5328 5335 5342 5350 5359 5367 5378 5394 5409 5420 5431 5440 5449 5457 5468 5477 5487 5495 5500 5505 5507 5513 5519 5525 5530 5535 5539 5541 5544 5547 5548 5547 5547 5547 5545 5546 5546 5546 5548 5544 5546 5546 5544 5540 5538
5310 5314 5318 5325 5332 5341 5350 5359 5370 5385 5402 5411 5423 5433 5441 5451 5462 5470 5477 5485 5492 5496 5501 5506 5512 5517 5521 5525 5530 5534 5538 5541 5539 5540 5539 5539 5540 5541 5540 5540 5537 5541 5537 5534 5531 5531 5529
5309 5311 5313 5319 5327 5335 5344 5353 5369 5384 5397 5407 5418 5429 5436 5444 5456 5463 5472 5479 5486 5489 5495 5500 5504 5510 5514 5518 5524 5528 5530 5531 5531 5534 5534 5534 5535 5536 5534 5532 5532 5531 5529 5528 5527 5528 5524
5306 5311 5315 5321 5328 5336 5346 5359 5371 5384 5395 5404 5415 5423 5431 5441 5449 5458 5465 5470 5477 5482 5490 5496 5499 5503 5508 5513 5517 5520 5523 5522 5526 5529 5530 5529 5529 5529 5529 5528 5528 5527 5525 5523 5521 5519 5517
5309 5316 5323 5329 5336 5345 5354 5364 5374 5384 5396 5403 5414 5423 5431 5440 5448 5454 5460 5469 5472 5480 5486 5490 5495 5499 5503 5507 5510 5513 5516 5519 5522 5522 5524 5525 5524 5524 5525 5524 5523 5521 5520 5518 5516 5515 5513